Borden, Ontario

6:39 PM EST on February 05, 2016 (GMT -0500)
Borden

Weather History for CYBN - February, 2014

Change the Weather History Date:

Tuesday, February 11, 2014

  Actual Average Record
Temperature  
Mean Temperature -2 °F -  
Max Temperature 12 °F 30 °F 46 °F (2009)
Min Temperature -18 °F 13 °F -23 °F (2003)
Degree Days  
Heating Degree Days 67    
Moisture  
Dew Point -2 °F    
Average Humidity 72    
Maximum Humidity 100    
Minimum Humidity 45    
Precipitation  
Precipitation 0.00 in - - ()
Sea Level Pressure  
Sea Level Pressure 30.44 in    
Wind  
Wind Speed 4 mph ()    
Max Wind Speed 9 mph    
Max Gust Speed 17 mph    
Visibility 9.0 miles    
Events      
Averages and records for this station are not official NWS values.
T = Trace of Precipitation, MM = Missing Value Source: Averaged Metar Reports

Daily Weather History Graph

Daily Weather History Graph

Search for Another Location

Airport or City:

Trip Planner

Search our weather history database for the weather conditions in past years. The results will help you decide how hot, cold, wet, or windy it might be!

Date:

Astronomy

Feb. 11, 2014 Rise Set
Actual Time 7:25 AM EST 5:43 PM EST
Civil Twilight 6:55 AM EST 6:13 PM EST
Nautical Twilight 6:20 AM EST 6:47 PM EST
Astronomical Twilight 5:47 AM EST 7:21 PM EST
Moon 2:59 PM EST (2/11) 5:04 AM EST (2/11)
Length of Visible Light 11h 18m
Length of Day
10h 18m
Waxing Gibbous, 90% of the Moon is Illuminated
Feb 11
Waxing Gibbous
Feb 14
Full
Feb 22
Last Quarter
Mar 1
New
Mar 8
First Quarter

Hourly Weather History & Observations

Time (EST) Temp. Windchill Dew Point Humidity Pressure Visibility Wind Dir Wind Speed Gust Speed Precip Events Conditions
12:00 AM 8.6 °F 2.0 °F 3.2 °F 79% 30.34 in 9.0 mi WSW 3.5 mph - N/A   Overcast
1:00 AM 9 °F - 3 °F 66% 30.34 in 9 mi WNW 3.5 mph - -   Overcast
1:00 AM 8.6 °F 2.0 °F 3.2 °F 79% 30.34 in 9.0 mi West 3.5 mph - N/A   Overcast
2:00 AM 8.6 °F 0.1 °F 3.2 °F 79% 30.34 in 9.0 mi WNW 4.6 mph - N/A   Overcast
3:00 AM 8.6 °F 2.0 °F 3.2 °F 79% 30.35 in 9.0 mi WNW 3.5 mph - N/A   Overcast
3:35 AM 8.6 °F 0.1 °F 3.2 °F 79% 30.30 in 9.0 mi West 4.6 mph - N/A   Overcast
4:00 AM 8.6 °F - 3.2 °F 79% 30.36 in 9.0 mi West 2.3 mph - N/A   Overcast
4:21 AM 8.6 °F 0.1 °F 1.4 °F 73% 30.31 in 9.0 mi West 4.6 mph - N/A   Overcast
5:00 AM 8.6 °F 0.1 °F 1.4 °F 73% 30.38 in 9.0 mi WNW 4.6 mph - N/A   Overcast
6:00 AM 6.8 °F -2.0 °F 1.4 °F 79% 30.39 in 9.0 mi WNW 4.6 mph - N/A   Overcast
7:00 AM 6 °F - -0 °F 65% 30.40 in 9 mi West 4.6 mph - -   Overcast
7:00 AM 6.8 °F -2.0 °F -0.4 °F 72% 30.40 in 9.0 mi West 4.6 mph - N/A   Overcast
8:00 AM 5.0 °F -2.1 °F -2.2 °F 72% 30.44 in 9.0 mi West 3.5 mph - N/A   Scattered Clouds
9:00 AM 6.8 °F -3.5 °F -2.2 °F 67% 30.45 in 9.0 mi WNW 5.8 mph - N/A   Mostly Cloudy
10:00 AM 8.6 °F -4.7 °F -0.4 °F 67% 30.46 in 9.0 mi WNW 9.2 mph 17.3 mph N/A   Partly Cloudy
11:00 AM 10.4 °F -2.4 °F -0.4 °F 62% 30.47 in 9.0 mi West 9.2 mph - N/A   Mostly Cloudy
12:00 PM 10.4 °F -0.4 °F -0.4 °F 62% 30.48 in 9.0 mi NW 6.9 mph - N/A   Scattered Clouds
1:00 PM 11 °F - -1 °F 45% 30.47 in 9 mi WNW 6.9 mph - -  
1:00 PM 10.4 °F -0.4 °F -0.4 °F 62% 30.47 in 9.0 mi NNW 6.9 mph - N/A   Mostly Cloudy
2:00 PM 12.2 °F 6.1 °F 1.4 °F 62% 30.46 in 9.0 mi NW 3.5 mph - N/A   Partly Cloudy
3:00 PM 12.2 °F 4.3 °F 1.4 °F 62% 30.47 in 9.0 mi NNW 4.6 mph - N/A   Scattered Clouds
4:00 PM 10.4 °F -1.5 °F 3.2 °F 73% 30.48 in 9.0 mi North 8.1 mph - N/A   Partly Cloudy
5:00 PM 10.4 °F -0.4 °F 3.2 °F 73% 30.48 in 9.0 mi North 6.9 mph - N/A   Clear
6:00 PM 6.8 °F - 1.4 °F 79% 30.51 in 9.0 mi North 2.3 mph - N/A   Mostly Cloudy
7:00 PM -4 °F - -6 °F 84% 30.53 in 9 mi Calm Calm - -  
7:00 PM -4.0 °F - -5.8 °F 92% 30.53 in 9.0 mi Calm Calm - N/A   Clear
8:00 PM -9.4 °F - -9.4 °F 100% 30.53 in 9.0 mi SSW 2.3 mph - N/A   Clear
9:00 PM -13.0 °F - -23.8 °F 59% 30.54 in 9.0 mi SSW 2.3 mph - N/A   Clear
10:00 PM -16.6 °F - -23.8 °F 70% 30.55 in 9.0 mi SSW 2.3 mph - N/A   Clear
11:00 PM -18.4 °F - -23.8 °F 76% 30.55 in 9.0 mi Calm Calm - N/A   Clear